Weather History for Sarasota, FL

Change the Weather History Date:

Thursday, May 1, 2014

  Actual Average Record
Temperature  
Mean Temperature 79 °F 74 °F  
Max Temperature 87 °F 83 °F 92 °F (1953)
Min Temperature 70 °F 64 °F 48 °F (1921)
Degree Days  
Heating Degree Days 0 0  
Month to date heating degree days 0 0  
Since 1 July heating degree days 345 477  
Cooling Degree Days 14 9  
Month to date cooling degree days 14 9  
Year to date cooling degree days 432 406  
Growing Degree Days 28 (Base 50)    
Moisture  
Dew Point 72 °F    
Average Humidity 80    
Maximum Humidity 91    
Minimum Humidity 65    
Precipitation  
Precipitation 0.00 in 0.06 in 2.00 in (1988)
Month to date precipitation 0.00 0.06  
Year to date precipitation 11.33 11.55  
Sea Level Pressure  
Sea Level Pressure 29.98 in    
Wind  
Wind Speed 10 mph (South)    
Max Wind Speed 22 mph    
Max Gust Speed 28 mph    
Visibility 10 miles    
Events      
T = Trace of Precipitation, MM = Missing Value Source: NWS Daily Summary

Daily Weather History Graph

Daily Weather History Graph

Search for Another Location

Airport:

Trip Planner

Search our weather history database for the weather conditions in past years. The results will help you decide how hot, cold, wet, or windy it might be!

Date:

Astronomy

May. 01, 2014 Rise Set
Actual Time 6:51 AM EDT 8:03 PM EDT
Civil Twilight 6:26 AM EDT 8:28 PM EDT
Nautical Twilight 5:57 AM EDT 8:57 PM EDT
Astronomical Twilight 5:27 AM EDT 9:28 PM EDT
Moon 8:42 AM EDT (5/1) 10:30 PM EDT (5/1)
Length of Visible Light 14h 01m
Length of Day
13h 12m
Waxing Crescent, 6% of the Moon is Illuminated
May 1
Waxing Crescent
May 6
First Quarter
May 14
Full
May 21
Last Quarter
May 28
New

Hourly Weather History & Observations

Time (EDT) Temp. Heat Index Dew Point Humidity Pressure Visibility Wind Dir Wind Speed Gust Speed Precip Events Conditions
12:53 AM 73.9 °F - 66.9 °F 79% 30.02 in 10.0 mi ENE 5.8 mph - N/A   Clear
1:53 AM 73.0 °F - 66.9 °F 81% 30.02 in 10.0 mi ESE 9.2 mph - N/A   Clear
2:53 AM 73.0 °F - 66.9 °F 81% 30.00 in 10.0 mi ESE 8.1 mph - N/A   Clear
3:53 AM 72.0 °F - 66.9 °F 84% 29.99 in 10.0 mi SE 9.2 mph - N/A   Clear
4:53 AM 72.0 °F - 66.9 °F 84% 29.98 in 10.0 mi SE 9.2 mph - N/A   Clear
5:53 AM 71.1 °F - 68.0 °F 90% 29.97 in 10.0 mi SE 6.9 mph - N/A   Clear
6:53 AM 71.1 °F - 66.9 °F 87% 29.98 in 10.0 mi SE 6.9 mph - N/A   Clear
7:53 AM 73.9 °F - 70.0 °F 87% 29.98 in 10.0 mi SE 9.2 mph - N/A   Clear
8:53 AM 80.1 °F 84.2 °F 73.0 °F 79% 29.99 in 10.0 mi SSE 11.5 mph - N/A   Clear
9:53 AM 82.9 °F 89.4 °F 73.9 °F 74% 29.99 in 10.0 mi South 16.1 mph - N/A   Clear
11:53 AM 86.0 °F 93.0 °F 73.0 °F 65% 30.01 in 10.0 mi South 16.1 mph - N/A   Clear
12:53 PM 86.0 °F 93.8 °F 73.9 °F 67% 30.01 in 10.0 mi SSW 15.0 mph - N/A   Scattered Clouds
2:53 PM 84.0 °F 91.2 °F 73.9 °F 72% 29.98 in 10.0 mi SSW 13.8 mph 23.0 mph N/A   Partly Cloudy
3:53 PM 82.9 °F 89.4 °F 73.9 °F 74% 29.96 in 10.0 mi SSW 13.8 mph - N/A   Scattered Clouds
4:53 PM 82.9 °F 89.4 °F 73.9 °F 74% 29.95 in 10.0 mi SSW 10.4 mph - N/A   Scattered Clouds
5:33 PM 82.9 °F 90.2 °F 75.0 °F 77% 29.95 in 10.0 mi SW 10.4 mph - N/A   Mostly Cloudy
5:53 PM 82.0 °F 87.9 °F 73.9 °F 76% 29.95 in 10.0 mi SW 10.4 mph - N/A   Mostly Cloudy
6:42 PM 81.0 °F 86.7 °F 75.0 °F 82% 29.95 in 10.0 mi SSW 8.1 mph - N/A   Overcast
6:53 PM 81.0 °F 86.7 °F 75.0 °F 82% 29.95 in 10.0 mi SW 9.2 mph - N/A   Overcast
7:40 PM 80.1 °F 85.1 °F 75.0 °F 85% 29.95 in 10.0 mi SW 8.1 mph - N/A   Overcast
7:53 PM 80.1 °F 85.1 °F 75.0 °F 85% 29.96 in 10.0 mi SSW 5.8 mph - N/A   Overcast
9:31 PM 80.1 °F 85.1 °F 75.0 °F 85% 29.97 in 10.0 mi SSW 6.9 mph - N/A   Mostly Cloudy
9:53 PM 80.1 °F 85.1 °F 75.0 °F 85% 29.97 in 10.0 mi South 6.9 mph - N/A   Partly Cloudy
10:53 PM 79.0 °F - 75.0 °F 88% 29.96 in 10.0 mi South 8.1 mph - N/A   Clear
11:53 PM 80.1 °F 84.5 °F 73.9 °F 81% 29.95 in 10.0 mi South 6.9 mph - N/A   Clear